Regional Weather Roundup
Issued by NWS Charleston, SC

Current Version | Previous Version | Graphics & Text | Print | Product List | Glossary On
Versions: 1 2 3 4 5 6 7 8 9 10 11 12 13 14 15 16 17 18 19 20 21 22 23 24 25 26 27 28 29 30 31 32 33 34 35 36 37 38 39 40 41 42 43 44 45 46 47 48 49 50
000 ASUS42 KCHS 300612 RWRCHS REGIONAL WEATHER ROUNDUP NATIONAL WEATHER SERVICE CHARLESTON SC 200 AM EDT SUN AUG 30 2015 NOTE: "FAIR" INDICATES FEW OR NO CLOUDS BELOW 12,000 FEET WITH NO SIGNIFICANT WEATHER AND/OR OBSTRUCTIONS TO VISIBILITY. NOT ALL STATIONS ARE QUALITY CONTROLLED BY THE NATIONAL WEATHER SERVICE. USE DATA WITH CAUTION...ESPECIALLY DEWPOINT OBSERVATIONS. SCZ027-030-031-034>040-042>050-300700- ...SOUTHEAST SOUTH CAROLINA... CITY SKY/WX TMP DP RH WIND PRES REMARKS N CHARLESTON FAIR 74 71 91 N5 30.10F 6HR MIN TEMP: 74; 6HR MAX TEMP: 79; WATERFRONT PRK N/A 79 75 87 VRB3 30.08F MOUNT PLEASANT FAIR 73 73 100 CALM 30.11F JOHNS ISLAND FAIR 75 73 94 CALM 30.10F PINOPOLIS N/A 79 68 69 CALM 30.03F MONCKS CORNER FAIR 72 68 88 CALM 30.12F SUMMERVILLE FAIR 70 70 100 CALM 30.12F BEAUFORT MCAS FAIR 74 72 93 NE6 30.09F 6HR MIN TEMP: 74; 6HR MAX TEMP: 78; BEAUFORT ARPT FAIR 77 75 94 CALM 30.09F HILTON HEAD IS MOCLDY 81 75 83 NE6 30.10F WALTERBORO FAIR 73 68 83 NE5 30.11F ALLENDALE FAIR 73 63 68 CALM 30.10F ...SOUTHERN MIDLANDS AND PEE DEE... CITY SKY/WX TMP DP RH WIND PRES REMARKS GEORGETOWN NOT AVBL KINGSTREE NOT AVBL ORANGEBURG FAIR 71 61 70 CALM 30.12F 6HR MIN TEMP: 69; 6HR MAX TEMP: 79; BARNWELL FAIR 73 64 73 CALM 30.12F AIKEN FAIR 70 59 68 CALM 30.16F MANNING FAIR 64 61 88 CALM 30.13S COLUMBIA CLOUDY 74 61 63 CALM 30.12F 6HR MIN TEMP: 73; 6HR MAX TEMP: 81; SUMTER FAIR 69 61 75 NE1 30.11F 6HR MIN TEMP: 68; 6HR MAX TEMP: 78; FLORENCE FAIR 71 64 78 CALM 30.13F 6HR MIN TEMP: 70; 6HR MAX TEMP: 79; MYRTLE BEACH MOCLDY 75 66 73 CALM 30.14F N MYRTLE BEACH FAIR 74 67 78 N3 30.11F 6HR MIN TEMP: 73; 6HR MAX TEMP: 77; $$ GAZ063-065-086>088-099>101-113>116-118-119-134>141-150-300700- ...SOUTHEAST GEORGIA... CITY SKY/WX TMP DP RH WIND PRES REMARKS SAVANNAH ARPT FAIR 76 72 87 CALM 30.09F 6HR MIN TEMP: 76; 6HR MAX TEMP: 79; HUNTER AAF FAIR 76 76 100 NE1 30.06F 6HR MIN TEMP: 75; 6HR MAX TEMP: 78; 6HR PCP: TRACE; FORT STEWART CLOUDY 74 72 93 CALM 30.07F 6HR MIN TEMP: 74; 6HR MAX TEMP: 78; 6HR PCP: 0.02; STATESBORO LGT RAIN 72 50 47 CALM 30.10F SYLVANIA FAIR 72 70 95 E3 30.11F CLAXTON NOT AVBL ...CSRA...CENTRAL AND FAR SOUTHEAST GEORGIA... CITY SKY/WX TMP DP RH WIND PRES REMARKS THOMSON FAIR 72 67 84 CALM 30.16F AUGUSTA-BUSH FAIR 70 66 87 CALM 30.11F 6HR MIN TEMP: 69; 6HR MAX TEMP: 75; AUGUSTA-DANIEL FAIR 81 60 48 E3 30.13F SWAINSBORO FAIR 73 70 88 E5 30.11F VIDALIA FAIR 72 70 94 CALM 30.09F EASTMAN FAIR 73 73 100 CALM 30.12S HAZLEHURST FAIR 75 75 100 E3 30.08S ALMA FAIR 74 73 97 E3 30.07F 6HR MIN TEMP: 74; 6HR MAX TEMP: 76; WAYCROSS FAIR 77 77 100 CALM 30.06F JESUP FAIR 77 75 94 CALM 30.08F BAXLEY MOCLDY 75 73 94 E5 30.07F BRUNSWICK MOCLDY 77 75 94 CALM 30.08S SAINT SIMONS LGT RAIN 79 73 82 S12G22 30.08S 6HR MIN TEMP: 80; 6HR MAX TEMP: 82; 6HR PCP: TRACE; $$ SCZ027-028-034-036>038-045-046-048>050-GAZ119-141-300700- ...LAKE AND SUPPLEMENTAL COASTAL OBSERVATIONS... STATION/POSITION TIME TEMP WIND PRES WAVE SWELL AIR SEA DIR/SP/G HT/PER HT/PER/DIR (UTC) (F) (DEG/KT/KT) (MB) (FT/S) (FT/S/D) UPR LAKE MARION NOT AVBL WINYAH BAY 0445 80 100/ 5 1019.0 LAKE MURRAY 0500 77 CALM / 3 1020.0S ACE BASIN NERRS NOT AVBL FORT PULASKI NOT AVBL SAPELO ISLAND 0500 81 100/ 4 1019.0S $$ ANZ835-935-AMZ111-154-330-350-352-354-370-450-454-472-300700- ...C-MAN AND BUOY OBSERVATIONS... STATION/POSITION TIME TEMP WIND PRES WAVE SWELL AIR SEA DIR/SP/G HT/PER HT/PER/DIR (UTC) (F) (DEG/KT/KT) (MB) (FT/S) (FT/S/D) BUOY 41004 0550 80 85 60/ 8/ 10 1019.0F 5/11 5/11 BUOY 41008 0550 82 85 150/ 12/ 16 1018.8S 4/11 3/ 90/11 FOLLY BEACH CMAN 0500 81 90/ 10/ 11 1019.9F CAPERS NEARSHORE 0508 81 100/ 10/ 14 1020.1F FRIPP NEARSHORE 0500 81 110/ 10/ 12 1019.2F STATION/POSITION TIME TEMP WIND PRES WAVE SWELL AIR SEA DIR/SP/G HT/PER HT/PER/DIR (UTC) (F) (DEG/KT/KT) (MB) (FT/S) (FT/S/D) 5E ST. MARYS GA 0521 86 N/A 4/11 2/120/11 FRYING PAN BUOY 0550 81 81 70/ 10/ 10 1020.0F 5/11 5/130/11 BUOY 41025 0550 79 82 360/ 10/ 10 1018.6F 4/11 3/120/11 CAPE LOOKOUT NC 0500 76 350/ 6/ 7 1019.7F BUOY 41002 0550 83 84 220/ 8/ 10 1020.3F 5/ 9 5/130/ 9 BUOY 41010 0520 80 85 160/ 12/ 16 1019.0S ST AUGUSTINE FL 0600 79 84 130/ 17/ 20 1018.9F $$

USA.gov is the U.S. government's official web portal to all federal, state and local government web resources and services.